Change the Weather History Date:

Sunday, September 11, 2011

  Actual Average Record
Temperature  
Mean Temperature 67 °F 66 °F  
Max Temperature 86 °F 80 °F 96 °F (2012)
Min Temperature 48 °F 51 °F 41 °F (2014)
Degree Days  
Heating Degree Days 0 2  
Month to date heating degree days 28 17  
Since 1 July heating degree days 28 31  
Cooling Degree Days 2 3  
Month to date cooling degree days 28 50  
Year to date cooling degree days 897 807  
Growing Degree Days 17 (Base 50)    
Moisture  
Dew Point 52 °F    
Average Humidity 65    
Maximum Humidity 100    
Minimum Humidity 30    
Precipitation  
Precipitation 0.00 in 0.09 in 1.14 in (2003)
Month to date precipitation 0.34 0.98  
Year to date precipitation 19.62 19.89  
Sea Level Pressure  
Sea Level Pressure 30.07 in    
Wind  
Wind Speed 5 mph (South)    
Max Wind Speed 13 mph    
Max Gust Speed 18 mph    
Visibility 9 miles    
Events      
T = Trace of Precipitation, MM = Missing Value Source: NWS Daily Summary

Daily Weather History Graph

Daily Weather History Graph

Search for Another Location

Airport or City:

Trip Planner

Search our weather history database for the weather conditions in past years. The results will help you decide how hot, cold, wet, or windy it might be!

Date:

Astronomy

Sep. 11, 2011 Rise Set
Actual Time 7:11 AM CDT 7:52 PM CDT
Civil Twilight 6:43 AM CDT 8:20 PM CDT
Nautical Twilight 6:10 AM CDT 8:53 PM CDT
Astronomical Twilight 5:36 AM CDT 9:27 PM CDT
Moon 7:14 PM CDT (9/11) 6:32 AM CDT (9/11)
Length of Visible Light 13h 36m
Length of Day
12h 40m
Full, 100% of the Moon is Illuminated
Sep 11
Full
Sep 12
Full
Sep 20
Last Quarter
Sep 27
New
Oct 3
First Quarter

Hourly Weather History & Observations

Time (CDT) Temp. Heat Index Dew Point Humidity Pressure Visibility Wind Dir Wind Speed Gust Speed Precip Events Conditions
12:53 AM 55.0 °F - 53.1 °F 93% 30.10 in 10.0 mi Calm Calm - N/A   Clear
1:53 AM 54.0 °F - 51.1 °F 90% 30.09 in 10.0 mi Calm Calm - N/A   Clear
2:53 AM 52.0 °F - 50.0 °F 93% 30.09 in 10.0 mi Calm Calm - N/A   Clear
3:53 AM 50.0 °F - 48.2 °F 94% 30.11 in 10.0 mi Calm Calm - N/A   Clear
4:53 AM 51.1 °F - 48.9 °F 92% 30.10 in 10.0 mi Calm Calm - N/A   Clear
5:53 AM 48.9 °F - 48.0 °F 97% 30.11 in 9.0 mi Calm Calm - N/A   Clear
6:53 AM 48.2 °F - 46.4 °F 93% 30.13 in 8.0 mi Calm Calm - N/A   Clear
7:20 AM 48.2 °F - 46.4 °F 93% 30.13 in 1.8 mi Calm Calm - N/A   Clear
7:30 AM 48.2 °F - 46.4 °F 93% 30.13 in 5.0 mi Calm Calm - N/A   Clear
7:53 AM 50.0 °F - 48.9 °F 96% 30.14 in 10.0 mi Calm Calm - N/A   Clear
8:53 AM 57.9 °F - 55.0 °F 90% 30.14 in 10.0 mi Calm Calm - 0.01 in   Clear
9:53 AM 68.0 °F - 59.0 °F 73% 30.13 in 10.0 mi Calm Calm - N/A   Clear
10:53 AM 75.9 °F - 57.0 °F 52% 30.12 in 10.0 mi West 8.1 mph - N/A   Clear
11:53 AM 80.1 °F 80.4 °F 57.0 °F 45% 30.10 in 10.0 mi SSW 9.2 mph - N/A   Clear
1:53 PM 82.4 °F 81.4 °F 53.6 °F 37% 30.07 in 10.0 mi South 5.8 mph - N/A   Clear
2:53 PM 84.9 °F - 52.0 °F 32% 30.04 in 10.0 mi South 6.9 mph - N/A   Clear
3:53 PM 86.0 °F - 51.1 °F 30% 30.01 in 10.0 mi South 8.1 mph - N/A   Clear
4:53 PM 86.0 °F - 51.1 °F 30% 29.99 in 10.0 mi South 8.1 mph - N/A   Clear
5:53 PM 84.0 °F 82.6 °F 54.0 °F 35% 29.99 in 10.0 mi South 10.4 mph - N/A   Clear
6:53 PM 82.4 °F 81.4 °F 53.6 °F 37% 30.00 in 10.0 mi South 11.5 mph - N/A   Clear
7:53 PM 75.2 °F - 55.4 °F 50% 29.99 in 10.0 mi South 9.2 mph - N/A   Clear
8:53 PM 73.0 °F - 55.0 °F 53% 29.99 in 10.0 mi South 8.1 mph - N/A   Clear
9:53 PM 69.1 °F - 55.0 °F 61% 29.99 in 10.0 mi South 4.6 mph - N/A   Clear
10:53 PM 64.0 °F - 55.9 °F 75% 29.99 in 10.0 mi ESE 3.5 mph - N/A   Clear
11:53 PM 64.0 °F - 54.0 °F 70% 29.98 in 10.0 mi SSE 3.5 mph - N/A   Clear